This is the latest recevied weather packets stored in our database for station/object KC8ZBC. If no packets are shown the sender has not sent any weather packets the latest 10 day(s).
| Time | Temp. | Humidity | Pressure | Rain* | Wind** | Luminosity | Snow |
|---|---|---|---|---|---|---|---|
| 1777732837 | 5° C | 57% | 992.7 hPa | 0 mm | - | 434 W/m² | - |
| 1777732534 | 5° C | 56% | 992.5 hPa | 0 mm | - | 194 W/m² | - |
| 1777732232 | 5.56° C | 53% | 992.4 hPa | 0 mm | - | 390 W/m² | - |
| 1777731928 | 5° C | 56% | 992.7 hPa | 0 mm | - | 688 W/m² | - |
| 1777731625 | 3.89° C | 59% | 992.5 hPa | 0 mm | - | 676 W/m² | - |
| 1777731323 | 3.89° C | 58% | 992.6 hPa | 0 mm | - | 71 W/m² | - |
| 1777731021 | 3.89° C | 61% | 992.7 hPa | 0 mm | - | 108 W/m² | - |
| 1777730719 | 3.89° C | 60% | 992.6 hPa | 0 mm | - | 79 W/m² | - |
| 1777730415 | 5° C | 60% | 992.5 hPa | 0 mm | - | 99 W/m² | - |
| 1777730110 | 4.44° C | 61% | 992.6 hPa | 0 mm | - | 86 W/m² | - |
| 1777729807 | 4.44° C | 59% | 992.6 hPa | 0 mm | - | 198 W/m² | - |
| 1777729504 | 5.56° C | 58% | 992.6 hPa | 0 mm | - | 557 W/m² | - |
| 1777729201 | 5.56° C | 62% | 992.8 hPa | 0 mm | - | 522 W/m² | - |
| 1777728897 | 5° C | 65% | 992.7 hPa | 0 mm | - | 239 W/m² | - |
| 1777728594 | 4.44° C | 64% | 992.8 hPa | 0 mm | - | 98 W/m² | - |
| 1777728292 | 3.89° C | 64% | 992.8 hPa | 0 mm | - | 253 W/m² | - |
| 1777727989 | 3.89° C | 67% | 992.9 hPa | 0 mm | - | 280 W/m² | - |
| 1777727685 | 3.89° C | 69% | 992.7 hPa | 0 mm | - | 313 W/m² | - |
| 1777727382 | 3.33° C | 68% | 992.8 hPa | 0 mm | - | 217 W/m² | - |
| 1777727080 | 3.89° C | 69% | 992.6 hPa | 0 mm | - | 196 W/m² | - |
| 1777726778 | 3.89° C | 72% | 992.8 hPa | 0 mm | - | 230 W/m² | - |
| 1777726474 | 3.89° C | 72% | 992.6 hPa | 0 mm | - | 185 W/m² | - |
| 1777726171 | 3.89° C | 77% | 992.7 hPa | 0 mm | - | 168 W/m² | - |
| 1777725867 | 2.78° C | 76% | 992.7 hPa | 0 mm | - | 160 W/m² | - |
| 1777725566 | 2.78° C | 76% | 992.7 hPa | 0 mm | - | 165 W/m² | - |
* Rain latest hour (hover to see other rain measurements)
** Current wind speed in m/s (hover to see current wind gust speed)